COSMOS 1275 DEB

Satellite information

Favourite Embed

Satellite Type and Status

DEBRISIN ORBIT

Key statistics

Satellite COSMOS 1275 DEB at a glance.

Uptime

16165

Days in orbit

Revolutions

≈ 13.5

Per day

Orbit

LEO

Low Earth Orbit

Inclination

83.1

Latest

Satellite identification and parameters

Extended collection of information and parameters for COSMOS 1275 DEB.

Object identification

Identified? True

Debris? True

Object name: COSMOS 1275 DEB

International designator: 1981-053GJ

Object number (NORAD): 13488

Object ID (CCSDS): 13488

Country: COMMONWEALTH OF INDEPENDENT STATES (CIS)

Current information (Y/N): Y

RCS size: SMALL

Orbital parameters

Period: 106.786 minutes

Inclination: 83.0826 deg

SMA: 7455.965 km

Apoapsis: 1223.375 km

Periapsis: 932.286 km

RAAN: 284.3567 deg

Eccentricy: 0.01952058

Argument of periapsis: 151.6076 deg

Mean anomaly: 1.7899 deg

Mean motion: 13.48487544 rev/day

Mean motion (dot): 0.00000938 rev/day2

B* drag term: 0.0013217317 1/REarth

Two-line elements (TLE)

Creation date: Sept. 5, 2025, 7:38 p.m.

Reference frame: TEME

Reference center: EARTH

Epoch: Sept. 5, 2025, 1:52 p.m. UTC

TLE line 0: 0 COSMOS 1275 DEB

TLE line 1: 1 13488U 81053GJ 25248.57827279 .00000938 00000-0 13217-2 0 9995

TLE line 2: 2 13488 83.0826 284.3567 0195206 151.6076 1.7899 13.48487544113969

Live tracking on map

Real-time ground track for satellite COSMOS 1275 DEB.

In-orbit conjunctions

A list of the most updated potential collisions computed for object COSMOS 1275 DEB.

Target Orbit TCA Probability of collision Miss distance Type
CZ-6A DEB SSO 2024-11-21 07:57:37 0.0001937568 85.0 (m) DEBRIS
CZ-4C DEB LEO 2024-11-09 21:29:38 0.0002430167 260.0 (m) DEBRIS

Associated space launch

Navigation satellite providing location information for the Tsiklon-B navigation system

COSMOS 1275 DEB was lifted into orbit during the mission ‘Kosmos-3M | Parus 27’, on board a Kosmos-3M space rocket.

The launch took place on June 4, 1981, 3:41 p.m. from 132/2.

For more information about the launch, click the button.

Launch to space Kosmos-3M | Parus 27
Kosmos-3M | Parus 27

Agency: N/A

Status: Launch Successful

Launch date: June 4, 1981, 3:41 p.m. UTC

Rocket: Kosmos-3M

Launch pad: 132/2

Location: Plesetsk Cosmodrome, Russian Federation

...

Latest news about this satellite

There are no fresh news available about this satellite. Check back as we update our databases every day.


Newsletter sign-up

Weekly statistics, charts and insights to help you stay on top of the space industry.